Peachtree City, GA

9:54 PM EST on February 24, 2017 (GMT -0500)
Peachtree City-Falcon

Weather History for KFFC - March, 2014

Change the Weather History Date:

Sunday, March 9, 2014

  Actual Average Record
Temperature  
Mean Temperature 56 °F 52 °F  
Max Temperature 72 °F 65 °F 81 °F (2009)
Min Temperature 40 °F 39 °F 24 °F (2008)
Degree Days  
Heating Degree Days 9 14  
Month to date heating degree days 144 130  
Since 1 July heating degree days 2674 2512  
Cooling Degree Days 0 0  
Month to date cooling degree days 0 0  
Year to date cooling degree days 0 0  
Growing Degree Days 6 (Base 50)    
Moisture  
Dew Point 42 °F    
Average Humidity 64    
Maximum Humidity 96    
Minimum Humidity 31    
Precipitation  
Precipitation 0.00 in 0.17 in 1.28 in (2011)
Month to date precipitation 0.49 1.57  
Year to date precipitation 6.83 10.67  
Snow  
Snow 0.00 in - - ()
Month to date snowfall 0.0  
Since 1 July snowfall 1.8  
Snow Depth 0.00 in    
Sea Level Pressure  
Sea Level Pressure 30.15 in    
Wind  
Wind Speed 4 mph (WNW)    
Max Wind Speed 15 mph    
Max Gust Speed 20 mph    
Visibility 10 miles    
Events      
T = Trace of Precipitation, MM = Missing Value Source: NWS Daily Summary

Daily Weather History Graph

Daily Weather History Graph

Search for Another Location

Airport or City:

Trip Planner

Search our weather history database for the weather conditions in past years. The results will help you decide how hot, cold, wet, or windy it might be!

Date:

Astronomy

Mar. 09, 2014 Rise Set
Actual Time 7:56 AM EDT 7:41 PM EDT
Civil Twilight 7:31 AM EDT 8:06 PM EDT
Nautical Twilight 7:02 AM EDT 8:35 PM EDT
Astronomical Twilight 6:34 AM EDT 9:03 PM EDT
Moon 1:46 PM EDT (3/9) 3:08 AM EDT (3/9)
Length of Visible Light 12h 34m
Length of Day
11h 45m
First Quarter, 61% of the Moon is Illuminated
Mar 9
First Quarter
Mar 16
Full
Mar 23
Last Quarter
Mar 30
New
Apr 7
First Quarter

Hourly Weather History & Observations

Time (EDT) Temp. Windchill Dew Point Humidity Pressure Visibility Wind Dir Wind Speed Gust Speed Precip Events Conditions
12:53 AM 46.0 °F - 43.0 °F 89% 30.15 in 10.0 mi Calm Calm - N/A   Clear
1:53 AM 44.1 °F - 42.1 °F 93% 30.14 in 10.0 mi Calm Calm - N/A   Clear
3:53 AM 44.1 °F - 42.1 °F 93% 30.13 in 10.0 mi Calm Calm - N/A   Clear
4:53 AM 44.1 °F 42.5 °F 42.1 °F 93% 30.13 in 9.0 mi NW 3.5 mph - N/A   Clear
5:53 AM 43.0 °F - 41.0 °F 93% 30.14 in 7.0 mi Calm Calm - N/A   Clear
6:53 AM 43.0 °F 41.3 °F 41.0 °F 93% 30.16 in 7.0 mi NW 3.5 mph - N/A   Clear
7:53 AM 41.0 °F - 39.0 °F 93% 30.18 in 7.0 mi Calm Calm - N/A   Clear
8:53 AM 44.1 °F - 43.0 °F 96% 30.19 in 7.0 mi Calm Calm - N/A   Clear
9:53 AM 55.0 °F - 44.1 °F 67% 30.20 in 10.0 mi WSW 4.6 mph - N/A   Clear
10:53 AM 59.0 °F - 43.0 °F 55% 30.20 in 10.0 mi Variable 5.8 mph - N/A   Clear
11:53 AM 62.1 °F - 42.1 °F 48% 30.21 in 10.0 mi WNW 9.2 mph - N/A   Clear
12:53 PM 64.0 °F - 42.1 °F 45% 30.19 in 10.0 mi West 9.2 mph - N/A   Scattered Clouds
1:53 PM 66.9 °F - 39.9 °F 37% 30.16 in 10.0 mi WNW 9.2 mph 16.1 mph N/A   Mostly Cloudy
2:53 PM 70.0 °F - 39.9 °F 33% 30.14 in 10.0 mi NNW 11.5 mph - N/A   Clear
3:53 PM 71.1 °F - 39.0 °F 31% 30.11 in 10.0 mi West 8.1 mph - N/A   Scattered Clouds
4:53 PM 71.1 °F - 39.9 °F 32% 30.10 in 10.0 mi West 10.4 mph - N/A   Partly Cloudy
5:53 PM 70.0 °F - 41.0 °F 35% 30.09 in 10.0 mi WSW 8.1 mph - N/A   Clear
6:53 PM 68.0 °F - 42.1 °F 39% 30.11 in 10.0 mi WNW 9.2 mph - N/A   Clear
7:53 PM 63.0 °F - 44.1 °F 50% 30.11 in 10.0 mi WNW 3.5 mph - N/A   Clear
8:53 PM 55.9 °F - 45.0 °F 67% 30.12 in 10.0 mi Calm Calm - N/A   Clear
9:53 PM 54.0 °F - 45.0 °F 72% 30.13 in 10.0 mi Calm Calm - N/A   Clear
10:53 PM 51.1 °F - 44.1 °F 77% 30.14 in 10.0 mi Calm Calm - N/A   Clear
11:53 PM 48.9 °F - 44.1 °F 83% 30.14 in 10.0 mi Calm Calm - N/A   Clear
12:53 AM 46.0 °F - 42.1 °F 86% 30.14 in 10.0 mi Calm Calm - N/A   Clear